Location: Newark
(51.5114°N, 0.0848°W)
Time: 20:07:40
(UTC+00:00)

N. Korean satellite - Pass Details

Date: 28 October 2019
Orbit: 456 x 506 km, 97.2° (Epoch: 18 November)

Event Time Altitude Azimuth Distance (km) Brightness Sun altitude
Rises 06:03:12 0° 13° (NNE) 2,584 10.3 -7.3°
Reaches altitude 10° 06:05:16 10° 15° (NNE) 1,704 9.4 -6.9°
Maximum altitude 06:08:57 83° 102° (ESE) 510 6.7 -6.4°
Drops below altitude 10° 06:12:39 10° 192° (SSW) 1,710 9.4 -5.8°
Sets 06:14:44 0° 193° (SSW) 2,594 10.3 -5.5°
